This is the latest recevied weather packets stored in our database for station/object EA4HRG-10. If no packets are shown the sender has not sent any weather packets the latest 10 day(s).
| Time | Temp. | Humidity | Pressure | Rain* | Wind** | Luminosity | Snow |
|---|---|---|---|---|---|---|---|
| 1788447339 | 43.89° C | 11% | 1012.8 hPa | - | - | - | - |
| 1788446439 | 43.89° C | 12% | 1012.9 hPa | - | - | - | - |
| 1788445539 | 43.89° C | 11% | 1013.1 hPa | - | - | - | - |
| 1788444639 | 43.33° C | 11% | 1013.1 hPa | - | - | - | - |
| 1788443739 | 43.33° C | 11% | 1013.3 hPa | - | - | - | - |
| 1788442839 | 43.33° C | 11% | 1013.5 hPa | - | - | - | - |
| 1788441939 | 43.33° C | 12% | 1013.7 hPa | - | - | - | - |
| 1788441116 | 43.33° C | 12% | 1013.8 hPa | - | - | - | - |
| 1788441056 | 43.33° C | 12% | 1013.8 hPa | - | - | - | - |
| 1788440139 | 42.78° C | 13% | 1014 hPa | - | - | - | - |
| 1788439239 | 41.11° C | 14% | 1014.7 hPa | - | - | - | - |
| 1788438339 | 41.11° C | 14% | 1014.6 hPa | - | - | - | - |
| 1788437439 | 39.44° C | 15% | 1015.2 hPa | - | - | - | - |
| 1788436539 | 42.22° C | 13% | 1014.5 hPa | - | - | - | - |
| 1788435639 | 42.22° C | 14% | 1014.6 hPa | - | - | - | - |
| 1788434739 | 42.22° C | 14% | 1014.9 hPa | - | - | - | - |
| 1788433839 | 42.22° C | 14% | 1014.9 hPa | - | - | - | - |
| 1788432939 | 41.67° C | 15% | 1015.4 hPa | - | - | - | - |
| 1788432039 | 42.22° C | 14% | 1015.3 hPa | - | - | - | - |
| 1788431139 | 42.78° C | 14% | 1015.2 hPa | - | - | - | - |
| 1788430262 | 41.11° C | 14% | 1015.8 hPa | - | - | - | - |
| 1788429339 | 45.56° C | 14% | 1014.4 hPa | - | - | - | - |
| 1788428439 | 43.89° C | 18% | 1015.1 hPa | - | - | - | - |
| 1788427539 | 42.78° C | 20% | 1015.5 hPa | - | - | - | - |
| 1788426639 | 43.89° C | 19% | 1015.3 hPa | - | - | - | - |
* Rain since midnight (hover to see other rain measurements)
** Current wind speed in m/s (hover to see current wind gust speed)